Location: *
(49.9853°N, 3.5569°E)
Time: 02:06:36
(UTC+00:00)

SL-14 R/B - Pass Details

Date: 22 September 2019
Orbit: 517 x 556 km, 82.4° (Epoch: 20 October)

Event Time Altitude Azimuth Distance (km) Brightness Sun altitude
Rises 19:43:18 0° 354° (N) 2,721 7.3 -19.3°
Reaches altitude 10° 19:45:34 10° 1° (N) 1,816 6.2 -19.6°
Enters shadow 19:49:02 43° 58° (ENE) 770 3.8 -20.1°
